Regional Weather Roundup
Issued by NWS Jackson, KY

Home | Current Version | Previous Version | Graphics & Text | Print | Product List | Glossary On
Versions: 1 2 3 4 5 6 7 8 9 10 11 12 13 14 15 16 17 18 19 20 21 22 23 24 25 26 27
000
ASUS43 KJKL 280310
RWRJKL

EAST KENTUCKY HOURLY WEATHER ROUNDUP
NATIONAL WEATHER SERVICE JACKSON KY
1100 PM EDT TUE SEP 27 2016

NOTE: "FAIR" INDICATES FEW OR NO CLOUDS BELOW 12,000 FEET WITH
NO SIGNIFICANT WEATHER AND/OR OBSTRUCTIONS TO VISIBILITY.

* THESE REPORTS ARE NOT UNDER NWS QUALITY CONTROL AND MAY NOT
  REPORT WEATHER SUCH AS PRECIPITATION AND FOG.

KYZ079-080-083-085-087-088-110-112-115-119-120-280400
...EASTERN KENTUCKY...

CITY           SKY/WX    TMP DP  RH WIND       PRES   REMARKS
JACKSON        CLEAR     60  45  57 CALM      29.95S
LONDON         CLEAR     53  47  79 CALM      29.96R
SOMERSET*      CLEAR     52  46  82 CALM      29.96S
MONTICELLO*    CLEAR     47  45  93 NE9       29.98R
WILLIAMSBURG*  CLEAR     50  50 100 CALM      29.96S
MIDDLESBORO*   CLEAR     52  50  93 CALM      29.97S
HARLAN APT*    PTCLDY    52  50  93 CALM      29.98S
PIKE CO APT*     N/A     63  40  42 CALM      29.96S
BIG SANDY APT* CLEAR     58  45  62 CALM      29.95S
MOREHEAD APT*  CLEAR     59  43  55 CALM      29.95S
ASHLAND*       CLEAR     55  50  82 CALM      29.91R
$$

KYZ035-036-041-042-044-050-067-078-099-280400
...CENTRAL KENTUCKY...

CITY           SKY/WX    TMP DP  RH WIND       PRES   REMARKS
MT STERLING*   CLEAR     54  45  71 SW6       29.95S
FLEMING/MASON* CLEAR     60  42  51 S7        29.93S
DANVILLE*      CLEAR     50  48  93 CALM      29.95S
LEXINGTON      CLEAR     59  44  57 SW7       29.93S
FRANKFORT      CLEAR     57  46  66 S5        29.90F
LOUISVILLE     CLEAR     66  46  48 S7        29.89S
LEBANON*         N/A     59  46  63 S5        29.94R
GLASGOW*       CLEAR     52  52 100 CALM      29.94S
BOWLING GREEN  CLEAR     62  47  57 S6        29.94R
$$

KYZ091>093-OHZ055-061-077-WVZ005-015-034-035-042-280400
...SOUTHERN OHIO/WEST VIRGINIA...

CITY           SKY/WX    TMP DP  RH WIND       PRES   REMARKS
COVINGTON      PTCLDY    59  48  67 S6        29.88S
COLUMBUS       PTCLDY    61  45  55 S6        29.87S
DAYTON         CLEAR     62  47  57 S10       29.86S
WILMINGTON     PTCLDY    57  46  66 S6        29.88S
HUNTINGTON     CLEAR     57  46  66 CALM      29.92S
CHARLESTON     CLEAR     55  47  74 CALM      29.94S
PINEVILLE*     CLEAR     50  46  87 MISG      30.02R
BECKLEY        CLEAR     52  41  66 SE3       29.99R
BLUEFIELD      CLEAR     54  44  69 SW5       30.00R
LOGAN CO APT*    N/A     57  48  72 CALM      29.95S
$$

VAZ002-007-008-TNZ017-027-036-066-071-280400
...SOUTHWEST VIRGINIA/EAST TENNESSEE...

CITY           SKY/WX    TMP DP  RH WIND       PRES   REMARKS
WISE*          PTCLDY    57  34  41 CALM      30.01S
JONESVILLE*      N/A     54  48  82 CALM      29.98S
ABINGDON*      CLEAR     60  59  96 CALM      29.97S
BRISTOL        CLEAR     60  59  96 CALM      29.95R
MORRISTOWN*    MOCLDY    61  55  82 CALM      29.93S
SEVIERVILLE*   CLEAR     64  61  88 CALM      29.93R
KNOXVILLE      PTCLDY    69  59  70 N3        29.92R
OAK RIDGE      CLEAR     61  51  70 CALM      29.95R
CROSSVILLE     CLEAR     52  45  77 CALM      29.99S
NASHVILLE      CLEAR     57  49  74 S5        29.96R
$$

...KEY TO REMARKS...
VSB - VISIBILITY IN MILES
WCI - WIND CHILL INDEX
HX  - HEAT INDEX

$$




USA.gov is the U.S. government's official web portal to all federal, state and local government web resources and services.